• In Uzbekistan
  • List of Countries
  • For 7 days
  • Water Temperature
  • Satellite Maps
  • Weather Map
  • Weather Widgets
  • user-avatar
    Login

    Hourly Weather Trzcianiec

    Today, 20 September, Thursday

    Time Temperature Precipitation Wind Pressure Humidity
    00:00 +15°C° 0 mm 2 mps 728 mmHg 79%
    01:00 +15°C° 0 mm 1 mps 728 mmHg 80%
    02:00 +14°C° 0 mm 1 mps 728 mmHg 82%
    03:00 +14°C° 0 mm 1 mps 728 mmHg 83%
    04:00 +14°C° 0 mm 1 mps 728 mmHg 84%
    05:00 +15°C° 0 mm 1 mps 728 mmHg 81%
    06:00 +16°C° 0 mm 1 mps 729 mmHg 78%
    07:00 +18°C° 0 mm 1 mps 729 mmHg 75%
    08:00 +20°C° 0 mm 1 mps 729 mmHg 67%
    09:00 +22°C° 0 mm 1 mps 729 mmHg 60%
    10:00 +23°C° 0 mm 0 mps 729 mmHg 53%
    11:00 +23°C° 0 mm 0 mps 729 mmHg 49%
    12:00 +24°C° 0 mm 0 mps 729 mmHg 46%
    13:00 +25°C° 0 mm 0 mps 729 mmHg 43%
    14:00 +26°C° 0 mm 1 mps 728 mmHg 48%
    15:00 +25°C° 0 mm 1 mps 728 mmHg 52%
    16:00 +24°C° 0 mm 1 mps 728 mmHg 56%
    17:00 +22°C° 0 mm 1 mps 728 mmHg 61%
    18:00 +20°C° 0 mm 1 mps 728 mmHg 65%
    19:00 +19°C° 0 mm 1 mps 728 mmHg 70%
    20:00 +18°C° 0 mm 1 mps 727 mmHg 73%
    21:00 +18°C° 0 mm 1 mps 727 mmHg 76%
    22:00 +16°C° 0 mm 1 mps 727 mmHg 79%
    23:00 +16°C° 0 mm 1 mps 727 mmHg 80%

    Tomorrow, 21 September, Friday

    Time Temperature Precipitation Wind Pressure Humidity
    00:00 +16°C° 0 mm 1 mps 727 mmHg 81%
    01:00 +15°C° 0 mm 1 mps 727 mmHg 82%
    02:00 +15°C° 0 mm 1 mps 727 mmHg 83%
    03:00 +15°C° 0 mm 1 mps 727 mmHg 83%
    04:00 +15°C° 0 mm 1 mps 726 mmHg 84%
    05:00 +15°C° 0 mm 1 mps 726 mmHg 81%
    06:00 +16°C° 0 mm 1 mps 726 mmHg 79%
    07:00 +18°C° 0 mm 1 mps 727 mmHg 76%
    08:00 +19°C° 0 mm 2 mps 727 mmHg 68%
    09:00 +21°C° 0 mm 2 mps 727 mmHg 61%
    10:00 +24°C° 0 mm 3 mps 727 mmHg 53%
    11:00 +25°C° 0 mm 3 mps 726 mmHg 50%
    12:00 +26°C° 0 mm 3 mps 726 mmHg 48%
    13:00 +26°C° 0 mm 4 mps 726 mmHg 45%
    14:00 +26°C° 0 mm 3 mps 725 mmHg 49%
    15:00 +25°C° 0 mm 3 mps 725 mmHg 53%
    16:00 +24°C° 0 mm 3 mps 725 mmHg 57%
    17:00 +22°C° 0 mm 3 mps 725 mmHg 60%
    18:00 +20°C° 0 mm 3 mps 725 mmHg 64%
    19:00 +18°C° 0 mm 3 mps 724 mmHg 67%
    20:00 +18°C° 0 mm 3 mps 724 mmHg 66%
    21:00 +18°C° 0 mm 3 mps 724 mmHg 65%
    22:00 +18°C° 0 mm 3 mps 724 mmHg 64%
    23:00 +18°C° 0 mm 4 mps 724 mmHg 63%

    Day after tomorrow, 22 September, Saturday

    Time Temperature Precipitation Wind Pressure Humidity
    00:00 +18°C° 0 mm 4 mps 724 mmHg 61%
    01:00 +18°C° 0 mm 4 mps 724 mmHg 60%
    02:00 +18°C° 0 mm 4 mps 724 mmHg 59%
    03:00 +18°C° 0 mm 4 mps 725 mmHg 57%
    04:00 +18°C° 0 mm 3 mps 725 mmHg 56%
    05:00 +17°C° 0.1 mm 3 mps 725 mmHg 62%
    06:00 +17°C° 0.1 mm 3 mps 725 mmHg 69%
    07:00 +16°C° 0.1 mm 3 mps 726 mmHg 75%
    08:00 +16°C° 0.1 mm 3 mps 726 mmHg 75%
    09:00 +17°C° 0.1 mm 3 mps 726 mmHg 74%
    10:00 +17°C° 0.1 mm 3 mps 727 mmHg 73%
    11:00 +16°C° 0.5 mm 3 mps 727 mmHg 77%
    12:00 +13°C° 0.5 mm 3 mps 727 mmHg 81%
    13:00 +12°C° 0.5 mm 3 mps 727 mmHg 85%
    14:00 +11°C° 1.6 mm 3 mps 727 mmHg 88%
    15:00 +10°C° 1.6 mm 2 mps 727 mmHg 90%
    16:00 +10°C° 1.6 mm 2 mps 727 mmHg 93%
    17:00 +9°C° 1.8 mm 2 mps 727 mmHg 93%
    18:00 +10°C° 1.8 mm 1 mps 727 mmHg 94%
    19:00 +9°C° 1.8 mm 1 mps 727 mmHg 94%
    20:00 +9°C° 0.2 mm 1 mps 727 mmHg 94%
    21:00 +9°C° 0.2 mm 1 mps 727 mmHg 94%
    22:00 +8°C° 0.2 mm 1 mps 728 mmHg 94%
    23:00 +8°C° 0 mm 1 mps 727 mmHg 93%

    23 September, Sunday

    Time Temperature Precipitation Wind Pressure Humidity
    00:00 +7°C° 0 mm 2 mps 727 mmHg 92%
    01:00 +6°C° 0 mm 2 mps 727 mmHg 92%
    02:00 +6°C° 0 mm 2 mps 727 mmHg 91%
    03:00 +6°C° 0 mm 2 mps 727 mmHg 91%
    04:00 +6°C° 0 mm 2 mps 727 mmHg 90%
    05:00 +7°C° 0 mm 2 mps 727 mmHg 89%
    06:00 +8°C° 0 mm 2 mps 728 mmHg 87%
    07:00 +9°C° 0 mm 2 mps 728 mmHg 85%
    08:00 +10°C° 0 mm 3 mps 728 mmHg 76%
    09:00 +12°C° 0 mm 3 mps 728 mmHg 67%
    10:00 +14°C° 0 mm 3 mps 728 mmHg 59%
    11:00 +15°C° 0 mm 4 mps 728 mmHg 55%
    12:00 +15°C° 0 mm 4 mps 727 mmHg 52%
    13:00 +17°C° 0 mm 4 mps 727 mmHg 49%
    14:00 +17°C° 0 mm 3 mps 726 mmHg 52%
    15:00 +16°C° 0 mm 3 mps 726 mmHg 55%
    16:00 +16°C° 0 mm 2 mps 725 mmHg 58%
    17:00 +14°C° 0 mm 3 mps 725 mmHg 60%
    18:00 +13°C° 0 mm 3 mps 724 mmHg 61%
    19:00 +12°C° 0 mm 4 mps 724 mmHg 63%
    20:00 +12°C° 0 mm 4 mps 723 mmHg 61%
    21:00 +13°C° 0 mm 5 mps 722 mmHg 60%
    22:00 +13°C° 0 mm 6 mps 721 mmHg 58%
    23:00 +12°C° 0 mm 7 mps 720 mmHg 57%

    24 September, Monday

    Time Temperature Precipitation Wind Pressure Humidity
    00:00 +12°C° 0 mm 7 mps 719 mmHg 55%
    01:00 +13°C° 0 mm 8 mps 718 mmHg 53%
    02:00 +13°C° 0 mm 8 mps 717 mmHg 52%
    03:00 +13°C° 0 mm 8 mps 715 mmHg 51%
    04:00 +15°C° 0 mm 9 mps 714 mmHg 51%
    05:00 +13°C° 0.4 mm 8 mps 713 mmHg 57%
    06:00 +14°C° 0.4 mm 7 mps 713 mmHg 64%
    07:00 +14°C° 0.4 mm 7 mps 712 mmHg 70%
    08:00 +14°C° 0.8 mm 7 mps 712 mmHg 76%
    09:00 +13°C° 0.8 mm 6 mps 712 mmHg 81%
    10:00 +13°C° 0.8 mm 6 mps 712 mmHg 86%
    11:00 +11°C° 0.6 mm 7 mps 712 mmHg 85%
    12:00 +11°C° 0.6 mm 7 mps 713 mmHg 84%
    13:00 +11°C° 0.6 mm 7 mps 713 mmHg 83%
    14:00 +10°C° 0.3 mm 8 mps 714 mmHg 82%
    15:00 +9°C° 0.3 mm 8 mps 715 mmHg 82%
    16:00 +7°C° 0.3 mm 8 mps 716 mmHg 81%
    17:00 +7°C° 0.1 mm 8 mps 716 mmHg 79%
    18:00 +7°C° 0.1 mm 9 mps 717 mmHg 78%
    19:00 +7°C° 0.1 mm 9 mps 718 mmHg 76%
    20:00 +7°C° 0.1 mm 9 mps 718 mmHg 75%
    21:00 +7°C° 0.1 mm 9 mps 718 mmHg 75%
    22:00 +7°C° 0.1 mm 9 mps 719 mmHg 74%
    23:00 +6°C° 0.1 mm 8 mps 720 mmHg 76%

    25 September, Tuesday

    Time Temperature Precipitation Wind Pressure Humidity
    00:00 +6°C° 0.1 mm 8 mps 720 mmHg 78%
    01:00 +6°C° 0.1 mm 8 mps 721 mmHg 80%
    02:00 +5°C° 0.1 mm 8 mps 721 mmHg 79%
    03:00 +5°C° 0.1 mm 8 mps 722 mmHg 78%
    04:00 +5°C° 0.1 mm 7 mps 723 mmHg 76%
    05:00 +5°C° 0 mm 7 mps 723 mmHg 76%
    06:00 +5°C° 0 mm 7 mps 724 mmHg 76%
    07:00 +4°C° 0 mm 7 mps 725 mmHg 76%
    08:00 +5°C° 0.1 mm 7 mps 725 mmHg 72%
    09:00 +6°C° 0.1 mm 7 mps 726 mmHg 67%
    10:00 +8°C° 0.1 mm 7 mps 726 mmHg 63%
    11:00 +8°C° 0.2 mm 7 mps 726 mmHg 60%
    12:00 +8°C° 0.2 mm 7 mps 726 mmHg 58%
    13:00 +9°C° 0.2 mm 7 mps 726 mmHg 55%
    14:00 +8°C° 0.2 mm 6 mps 727 mmHg 57%
    15:00 +8°C° 0.2 mm 6 mps 727 mmHg 59%
    16:00 +7°C° 0.2 mm 5 mps 727 mmHg 61%
    17:00 +6°C° 0 mm 4 mps 727 mmHg 65%
    18:00 +5°C° 0 mm 3 mps 728 mmHg 69%
    19:00 +4°C° 0 mm 3 mps 728 mmHg 73%
    20:00 +3°C° 0 mm 3 mps 729 mmHg 74%
    21:00 +4°C° 0 mm 2 mps 729 mmHg 75%
    22:00 +3°C° 0 mm 2 mps 729 mmHg 77%
    23:00 +3°C° 0 mm 2 mps 730 mmHg 77%
    Show more